Station Historical Data
Daily Summary for July 17, 2017 Units:  Metric    English   Both
« Previous Day
Next Day »
Daily Weekly Monthly Yearly Custom
  High: Low: Average:
Temperature: 25.3 °C 18.6 °C 22.1 °C
Dew Point: 19.9 °C 16.5 °C 18 °C
Humidity: 93% 60% 79%
Wind Speed: 24.1km/h 0km/h 5.3km/h
Wind Gust: 29km/h - -
Wind- - SW
Pressure: 1016.8 hPa 1012.8 hPa -
Precipitation: 0 mm    
Historical Graphs
 
 
Tabular Data for July 17, 2017
Time Temperature Dew Point Pressure Wind Wind Speed Wind Gust Humidity Rainfall Rate (Hourly)
00:04 20.7 °C 18.1 °C 1013.4 hPa SE 3.2 km/h 6.4 km/h 85% 0 mm
00:09 20.7 °C 18.1 °C 1013.4 hPa SE 4.8 km/h 11.3 km/h 85% 0 mm
00:14 20.7 °C 18.3 °C 1013.4 hPa ESE 6.4 km/h 6.4 km/h 86% 0 mm
00:19 20.7 °C 18.3 °C 1013.4 hPa SE 3.2 km/h 11.3 km/h 86% 0 mm
00:24 20.6 °C 18.2 °C 1013.4 hPa SSE 6.4 km/h 9.7 km/h 86% 0 mm
00:29 20.6 °C 18.2 °C 1013.1 hPa ESE 8 km/h 9.7 km/h 86% 0 mm
00:34 20.5 °C 18.1 °C 1013.1 hPa SSE 3.2 km/h 9.7 km/h 86% 0 mm
00:39 20.4 °C 18 °C 1013.4 hPa SE 3.2 km/h 8 km/h 86% 0 mm
00:44 20.3 °C 18.1 °C 1013.1 hPa ESE 3.2 km/h 6.4 km/h 87% 0 mm
00:49 20.3 °C 18.1 °C 1013.1 hPa ESE 3.2 km/h 8 km/h 87% 0 mm
00:54 20.3 °C 18.1 °C 1013.1 hPa ESE 1.6 km/h 12.9 km/h 87% 0 mm
00:59 20.3 °C 18.1 °C 1013.4 hPa ESE 3.2 km/h 8 km/h 87% 0 mm
01:04 20.3 °C 18.1 °C 1013.4 hPa SE 3.2 km/h 8 km/h 87% 0 mm
01:09 20.3 °C 18.1 °C 1013.1 hPa Calm   9.7 km/h 87% 0 mm
01:14 20.3 °C 17.9 °C 1013.1 hPa SE 3.2 km/h 9.7 km/h 86% 0 mm
01:19 20.3 °C 17.9 °C 1013.1 hPa SE 3.2 km/h 12.9 km/h 86% 0 mm
01:24 20.3 °C 17.9 °C 1013.4 hPa SE 3.2 km/h 12.9 km/h 86% 0 mm
01:29 20.4 °C 17.9 °C 1013.4 hPa SSE 3.2 km/h 8 km/h 86% 0.25 mm
01:34 20.4 °C 17.9 °C 1013.4 hPa Calm   6.4 km/h 86% 0.25 mm
01:39 20.3 °C 17.9 °C 1013.8 hPa Calm     86% 0.25 mm
01:44 20.3 °C 17.9 °C 1013.8 hPa SE 3.2 km/h 3.2 km/h 86% 0.76 mm
01:49 20.3 °C 18.1 °C 1013.8 hPa Calm   3.2 km/h 87% 1.02 mm
01:54 20.1 °C 17.9 °C 1013.4 hPa ENE 3.2 km/h 4.8 km/h 87% 1.52 mm
01:59 20.1 °C 18 °C 1013.1 hPa East 4.8 km/h 8 km/h 88% 1.52 mm
02:04 20 °C 17.9 °C 1013.4 hPa ENE 3.2 km/h 8 km/h 88% 1.52 mm
02:09 19.9 °C 18.1 °C 1013.4 hPa ENE 1.6 km/h 8 km/h 89% 1.52 mm
02:14 19.8 °C 17.9 °C 1013.1 hPa Calm   3.2 km/h 89% 1.52 mm
02:19 19.8 °C 17.9 °C 1013.1 hPa Calm     89% 1.52 mm
02:24 19.7 °C 18.1 °C 1013.1 hPa Calm     90% 1.52 mm
02:29 19.7 °C 18 °C 1013.1 hPa Calm     90% 1.27 mm
02:34 19.6 °C 17.9 °C 1013.1 hPa Calm     90% 1.27 mm
02:39 19.6 °C 17.9 °C 1013.1 hPa Calm     90% 1.27 mm
02:44 19.5 °C 17.8 °C 1013.1 hPa Calm     90% 0.76 mm
02:49 19.4 °C 17.8 °C 1012.8 hPa Calm     90% 0.51 mm
02:54 19.4 °C 17.8 °C 1012.8 hPa Calm     90% 0 mm
02:59 19.4 °C 17.8 °C 1012.8 hPa Calm     90% 0 mm
03:04 19.4 °C 17.9 °C 1012.8 hPa Calm     91% 0.25 mm
03:09 19.4 °C 17.9 °C 1012.8 hPa Calm     91% 0.25 mm
03:14 19.4 °C 17.9 °C 1012.8 hPa Calm     91% 0.25 mm
03:19 19.4 °C 17.9 °C 1012.8 hPa Calm     91% 0.25 mm
03:24 19.5 °C 18 °C 1012.8 hPa Calm     91% 0.25 mm
03:29 19.5 °C 18 °C 1012.8 hPa Calm     91% 0.25 mm
03:34 19.5 °C 18 °C 1012.8 hPa Calm     91% 0.25 mm
03:39 19.6 °C 18.1 °C 1012.8 hPa Calm     91% 0.25 mm
03:44 19.5 °C 18 °C 1012.8 hPa Calm     91% 0.25 mm
03:49 19.4 °C 17.9 °C 1012.8 hPa Calm     91% 0.25 mm
03:54 19.3 °C 17.8 °C 1013.1 hPa Calm     91% 0.25 mm
03:59 19.3 °C 17.8 °C 1012.8 hPa Calm     91% 0.25 mm
04:04 19.2 °C 17.7 °C 1012.8 hPa Calm     91% 0 mm
04:09 19.2 °C 17.8 °C 1013.1 hPa Calm     92% 0 mm
04:14 19.1 °C 17.8 °C 1013.1 hPa Calm   6.4 km/h 92% 0 mm
04:19 19.1 °C 17.8 °C 1013.1 hPa Calm     92% 0 mm
04:24 19.1 °C 17.7 °C 1012.8 hPa Calm     92% 0 mm
04:29 19.1 °C 17.7 °C 1013.1 hPa Calm     92% 0 mm
04:34 19.1 °C 17.7 °C 1013.1 hPa Calm     92% 0 mm
04:39 19.1 °C 17.7 °C 1012.8 hPa Calm     92% 0 mm
04:44 19 °C 17.7 °C 1012.8 hPa Calm     92% 0 mm
04:49 18.9 °C 17.6 °C 1012.8 hPa Calm     92% 0 mm
04:54 18.8 °C 17.5 °C 1012.8 hPa Calm     92% 0 mm
04:59 18.8 °C 17.5 °C 1012.8 hPa Calm     92% 0 mm
05:04 18.8 °C 17.5 °C 1012.8 hPa Calm     92% 0 mm
05:09 18.9 °C 17.6 °C 1013.1 hPa Calm     92% 0 mm
05:14 18.9 °C 17.6 °C 1013.1 hPa Calm     92% 0 mm
05:19 18.8 °C 17.5 °C 1012.8 hPa Calm     92% 0 mm
05:24 18.8 °C 17.4 °C 1012.8 hPa Calm     92% 0 mm
05:29 18.8 °C 17.4 °C 1013.1 hPa Calm     92% 0 mm
05:34 18.6 °C 17.3 °C 1013.1 hPa Calm     92% 0 mm
05:39 18.6 °C 17.2 °C 1013.1 hPa Calm     92% 0 mm
05:44 18.6 °C 17.2 °C 1013.1 hPa Calm     92% 0 mm
05:49 18.7 °C 17.3 °C 1013.1 hPa Calm     92% 0 mm
05:54 18.7 °C 17.3 °C 1013.1 hPa Calm     92% 0 mm
05:59 18.8 °C 17.4 °C 1013.1 hPa Calm     92% 0 mm
06:04 18.8 °C 17.4 °C 1013.1 hPa Calm     92% 0 mm
06:09 18.8 °C 17.4 °C 1013.1 hPa Calm     92% 0 mm
06:14 18.8 °C 17.6 °C 1013.1 hPa Calm     93% 0 mm
06:19 18.8 °C 17.6 °C 1013.1 hPa Calm     93% 0 mm
06:24 18.8 °C 17.6 °C 1013.1 hPa Calm     93% 0 mm
06:29 18.9 °C 17.7 °C 1013.1 hPa Calm     93% 0 mm
06:34 18.8 °C 17.5 °C 1013.1 hPa Calm     92% 0 mm
06:39 18.8 °C 17.7 °C 1013.1 hPa Calm     93% 0 mm
06:44 18.9 °C 17.8 °C 1013.1 hPa Calm     93% 0 mm
06:49 19 °C 17.8 °C 1013.4 hPa Calm     93% 0 mm
06:54 19.1 °C 17.9 °C 1013.4 hPa Calm     93% 0 mm
06:59 19.3 °C 18.2 °C 1013.4 hPa Calm     93% 0 mm
07:04 19.5 °C 18.3 °C 1013.4 hPa Calm   4.8 km/h 93% 0 mm
07:09 19.6 °C 18.3 °C 1013.4 hPa SSE 1.6 km/h 4.8 km/h 92% 0 mm
07:14 19.7 °C 18.3 °C 1013.4 hPa Calm   6.4 km/h 92% 0 mm
07:19 19.8 °C 18.5 °C 1013.8 hPa Calm   4.8 km/h 92% 0 mm
07:24 20.1 °C 18.7 °C 1013.8 hPa Calm   4.8 km/h 92% 0 mm
07:29 20.3 °C 18.8 °C 1013.8 hPa Calm     91% 0 mm
07:34 20.6 °C 19.1 °C 1013.8 hPa SSW 1.6 km/h 6.4 km/h 91% 0 mm
07:39 20.8 °C 19.1 °C 1013.8 hPa SSW 6.4 km/h 8 km/h 90% 0 mm
07:44 21.1 °C 19.3 °C 1014.1 hPa SW 1.6 km/h 8 km/h 90% 0 mm
07:49 21.1 °C 19.4 °C 1014.1 hPa SSW 1.6 km/h 9.7 km/h 90% 0 mm
07:54 21.1 °C 19.2 °C 1014.1 hPa SSW 1.6 km/h 8 km/h 89% 0 mm
07:59 21.2 °C 19.3 °C 1014.1 hPa SSW 1.6 km/h 8 km/h 89% 0 mm
08:04 21.3 °C 19.4 °C 1014.1 hPa SW 1.6 km/h 4.8 km/h 89% 0 mm
08:09 21.6 °C 19.7 °C 1014.1 hPa SW 3.2 km/h 8 km/h 89% 0 mm
08:14 21.8 °C 19.9 °C 1014.1 hPa Calm   6.4 km/h 89% 0 mm
08:19 22.1 °C 19.8 °C 1014.1 hPa WSW 4.8 km/h 12.9 km/h 87% 0 mm
08:24 21.9 °C 19.3 °C 1014.1 hPa West 9.7 km/h 19.3 km/h 85% 0 mm
08:29 22.2 °C 19.2 °C 1014.4 hPa WSW 8 km/h 19.3 km/h 83% 0 mm
08:34 22.4 °C 19.2 °C 1014.4 hPa WSW 6.4 km/h 14.5 km/h 82% 0 mm
08:39 22.6 °C 19.2 °C 1014.4 hPa WNW 6.4 km/h 19.3 km/h 81% 0 mm
08:44 22.7 °C 19.2 °C 1014.4 hPa WNW 3.2 km/h 12.9 km/h 81% 0 mm
08:49 22.4 °C 19 °C 1014.4 hPa SW 4.8 km/h 12.9 km/h 81% 0 mm
08:54 22.8 °C 19.2 °C 1014.4 hPa West 4.8 km/h 11.3 km/h 80% 0 mm
08:59 22.8 °C 19.3 °C 1014.4 hPa WSW 6.4 km/h 12.9 km/h 81% 0 mm
09:04 22.6 °C 18.5 °C 1014.4 hPa WSW 8 km/h 20.9 km/h 78% 0 mm
09:09 22.6 °C 18.7 °C 1014.8 hPa SW 8 km/h 16.1 km/h 79% 0 mm
09:14 22.9 °C 19.1 °C 1014.8 hPa WSW 4.8 km/h 16.1 km/h 79% 0 mm
09:19 22.9 °C 18.7 °C 1014.8 hPa SW 8 km/h 16.1 km/h 77% 0 mm
09:24 23.2 °C 18.9 °C 1014.8 hPa WSW 12.9 km/h 16.1 km/h 77% 0 mm
09:29 23.4 °C 18.8 °C 1014.8 hPa WSW 8 km/h 19.3 km/h 75% 0 mm
09:34 23.8 °C 19.1 °C 1014.8 hPa WSW 8 km/h 19.3 km/h 75% 0 mm
09:39 23.5 °C 18.4 °C 1014.8 hPa WSW 8 km/h 19.3 km/h 73% 0 mm
09:44 23.1 °C 18.2 °C 1014.8 hPa WSW 9.7 km/h 19.3 km/h 74% 0 mm
09:49 22.8 °C 17.9 °C 1014.8 hPa SW 8 km/h 17.7 km/h 74% 0 mm
09:54 23.3 °C 18.7 °C 1014.8 hPa SSE 14.5 km/h 16.1 km/h 75% 0 mm
09:59 23.1 °C 18.6 °C 1014.8 hPa WSW 11.3 km/h 16.1 km/h 76% 0 mm
10:04 23.2 °C 18.5 °C 1014.8 hPa West 4.8 km/h 17.7 km/h 75% 0 mm
10:09 23.6 °C 18.4 °C 1014.8 hPa West 9.7 km/h 17.7 km/h 73% 0 mm
10:14 23.7 °C 18.6 °C 1014.8 hPa SW 14.5 km/h 17.7 km/h 73% 0 mm
10:19 23.7 °C 18.6 °C 1014.8 hPa SW 4.8 km/h 16.1 km/h 73% 0 mm
10:24 24.1 °C 18.7 °C 1015.1 hPa SW 11.3 km/h 14.5 km/h 72% 0 mm
10:29 23.9 °C 18.6 °C 1015.1 hPa SW 8 km/h 17.7 km/h 72% 0 mm
10:34 24.1 °C 19.2 °C 1015.1 hPa SW 9.7 km/h 17.7 km/h 74% 0 mm
10:39 23.9 °C 18.6 °C 1015.1 hPa WSW 9.7 km/h 20.9 km/h 72% 0 mm
10:44 23.8 °C 18.7 °C 1015.5 hPa WSW 9.7 km/h 20.9 km/h 73% 0 mm
10:49 23.8 °C 18.7 °C 1015.1 hPa West 6.4 km/h 16.1 km/h 73% 0 mm
10:54 24.1 °C 18.7 °C 1015.5 hPa WSW 11.3 km/h 19.3 km/h 72% 0 mm
10:59 24.2 °C 18.6 °C 1015.1 hPa SW 9.7 km/h 19.3 km/h 71% 0 mm
11:04 24.2 °C 18.8 °C 1015.5 hPa SW 9.7 km/h 19.3 km/h 72% 0 mm
11:09 24.3 °C 18.7 °C 1015.5 hPa WSW 8 km/h 19.3 km/h 71% 0 mm
11:14 24.2 °C 18.6 °C 1015.1 hPa WSW 6.4 km/h 17.7 km/h 71% 0 mm
11:19 24.3 °C 18.3 °C 1015.1 hPa SW 6.4 km/h 17.7 km/h 69% 0 mm
11:24 24.7 °C 18.4 °C 1015.1 hPa SW 9.7 km/h 19.3 km/h 68% 0 mm
11:29 24.6 °C 18.5 °C 1015.1 hPa SW 9.7 km/h 19.3 km/h 69% 0 mm
11:34 24.7 °C 18.4 °C 1015.1 hPa SW 9.7 km/h 16.1 km/h 68% 0 mm
11:39 24.7 °C 18.6 °C 1015.5 hPa WSW 11.3 km/h 17.7 km/h 69% 0 mm
11:44 24.6 °C 18.6 °C 1015.1 hPa SW 8 km/h 19.3 km/h 69% 0 mm
11:49 24.7 °C 18.9 °C 1015.5 hPa SSW 8 km/h 17.7 km/h 70% 0 mm
11:54 24.7 °C 18.6 °C 1015.5 hPa SW 6.4 km/h 19.3 km/h 69% 0 mm
11:59 24.7 °C 18.7 °C 1015.5 hPa SW 9.7 km/h 19.3 km/h 69% 0 mm
12:04 24.6 °C 17.8 °C 1015.1 hPa SW 11.3 km/h 22.5 km/h 66% 0 mm
12:09 24.7 °C 18.1 °C 1015.1 hPa SW 9.7 km/h 22.5 km/h 67% 0 mm
12:14 24.8 °C 18.5 °C 1015.1 hPa SW 9.7 km/h 20.9 km/h 68% 0 mm
12:19 24.9 °C 18.1 °C 1015.1 hPa SW 9.7 km/h 20.9 km/h 66% 0 mm
12:24 24.6 °C 17.8 °C 1015.1 hPa West 8 km/h 16.1 km/h 66% 0 mm
12:29 24.7 °C 18.6 °C 1015.1 hPa WSW 8 km/h 17.7 km/h 69% 0 mm
12:34 24.9 °C 18.4 °C 1015.1 hPa SW 16.1 km/h 22.5 km/h 67% 0 mm
12:39 24.8 °C 18.5 °C 1015.1 hPa SSW 9.7 km/h 19.3 km/h 68% 0 mm
12:44 24.8 °C 18.7 °C 1015.1 hPa SW 6.4 km/h 20.9 km/h 69% 0 mm
12:49 24.7 °C 18.4 °C 1015.1 hPa WSW 9.7 km/h 20.9 km/h 68% 0 mm
12:54 24.9 °C 18.9 °C 1015.1 hPa SW 9.7 km/h 20.9 km/h 69% 0 mm
12:59 25 °C 18.7 °C 1015.1 hPa SW 9.7 km/h 20.9 km/h 68% 0 mm
13:04 24.7 °C 18.4 °C 1015.1 hPa WSW 9.7 km/h 20.9 km/h 68% 0 mm
13:09 24.4 °C 18.6 °C 1015.1 hPa WSW 9.7 km/h 20.9 km/h 70% 0 mm
13:14 24.8 °C 18.1 °C 1015.1 hPa WSW 11.3 km/h 20.9 km/h 66% 0 mm
13:19 25 °C 18.7 °C 1015.5 hPa SW 9.7 km/h 20.9 km/h 68% 0 mm
13:24 24.5 °C 18.2 °C 1015.1 hPa West 24.1 km/h 24.1 km/h 68% 0 mm
13:29 24.9 °C 18.1 °C 1015.5 hPa WSW 11.3 km/h 24.1 km/h 66% 0 mm
13:34 24.8 °C 18.3 °C 1015.5 hPa WSW 9.7 km/h 24.1 km/h 67% 0 mm
13:39 25.1 °C 18 °C 1015.1 hPa WSW 9.7 km/h 19.3 km/h 65% 0 mm
13:44 25.3 °C 18.2 °C 1015.5 hPa SSW 12.9 km/h 19.3 km/h 65% 0 mm
13:49 24.7 °C 17.4 °C 1015.5 hPa SW 9.7 km/h 25.7 km/h 64% 0 mm
13:54 24.7 °C 18.2 °C 1015.5 hPa WSW 11.3 km/h 25.7 km/h 67% 0 mm
13:59 24.7 °C 18.4 °C 1015.5 hPa WSW 11.3 km/h 24.1 km/h 68% 0 mm
14:04 24.7 °C 18.8 °C 1015.5 hPa WSW 12.9 km/h 19.3 km/h 70% 0 mm
14:09 24.8 °C 18.5 °C 1015.5 hPa WSW 11.3 km/h 20.9 km/h 68% 0 mm
14:14 24.7 °C 18.2 °C 1015.1 hPa West 6.4 km/h 20.9 km/h 67% 0 mm
14:19 24.8 °C 18.1 °C 1015.1 hPa SW 19.3 km/h 19.3 km/h 66% 0 mm
14:24 25.1 °C 18.5 °C 1015.5 hPa WSW 9.7 km/h 24.1 km/h 67% 0 mm
14:29 25.3 °C 18.9 °C 1015.5 hPa West 9.7 km/h 24.1 km/h 68% 0 mm
14:34 24.8 °C 17.6 °C 1015.5 hPa WSW 11.3 km/h 20.9 km/h 64% 0 mm
14:39 24.6 °C 17.3 °C 1015.5 hPa WSW 12.9 km/h 25.7 km/h 64% 0 mm
14:44 24.9 °C 17.3 °C 1015.5 hPa WSW 12.9 km/h 25.7 km/h 63% 0 mm
14:49 24.8 °C 17.5 °C 1015.5 hPa WSW 12.9 km/h 25.7 km/h 64% 0 mm
14:54 25.1 °C 17.3 °C 1015.5 hPa SW 9.7 km/h 22.5 km/h 62% 0 mm
14:59 24.8 °C 17.3 °C 1015.5 hPa WSW 16.1 km/h 25.7 km/h 63% 0 mm
15:04 24.5 °C 17.2 °C 1015.5 hPa West 8 km/h 22.5 km/h 64% 0 mm
15:09 25.1 °C 17.3 °C 1015.5 hPa WSW 12.9 km/h 29 km/h 62% 0 mm
15:14 25.1 °C 17.3 °C 1015.5 hPa WSW 8 km/h 25.7 km/h 62% 0 mm
15:19 24.9 °C 17.1 °C 1015.5 hPa SSW 9.7 km/h 20.9 km/h 62% 0 mm
15:24 24.8 °C 16.7 °C 1015.5 hPa WSW 14.5 km/h 20.9 km/h 61% 0 mm
15:29 24.9 °C 17.1 °C 1015.1 hPa SW 11.3 km/h 22.5 km/h 62% 0 mm
15:34 25 °C 17.9 °C 1015.5 hPa SW 11.3 km/h 22.5 km/h 65% 0 mm
15:39 25 °C 17.7 °C 1015.1 hPa SW 11.3 km/h 22.5 km/h 64% 0 mm
15:44 24.6 °C 17.3 °C 1015.1 hPa WSW 12.9 km/h 22.5 km/h 64% 0 mm
15:49 24.8 °C 17.6 °C 1015.5 hPa SW 11.3 km/h 19.3 km/h 64% 0 mm
15:54 25.2 °C 17.2 °C 1015.5 hPa WSW 9.7 km/h 19.3 km/h 61% 0 mm
15:59 24.9 °C 16.8 °C 1015.5 hPa WSW 9.7 km/h 20.9 km/h 61% 0 mm
16:04 24.7 °C 16.7 °C 1015.5 hPa West 6.4 km/h 20.9 km/h 61% 0 mm
16:09 24.8 °C 16.5 °C 1015.1 hPa West 8 km/h 20.9 km/h 60% 0 mm
16:14 24.8 °C 16.8 °C 1015.5 hPa WSW 17.7 km/h 19.3 km/h 61% 0 mm
16:19 24.7 °C 17.2 °C 1015.5 hPa WSW 8 km/h 27.4 km/h 63% 0 mm
16:24 24.5 °C 16.7 °C 1015.1 hPa WSW 11.3 km/h 27.4 km/h 62% 0 mm
16:29 24.8 °C 17 °C 1015.5 hPa West 11.3 km/h 24.1 km/h 62% 0 mm
16:34 24.7 °C 17.2 °C 1015.5 hPa WSW 9.7 km/h 24.1 km/h 63% 0 mm
16:39 24.6 °C 17.1 °C 1015.5 hPa South 8 km/h 25.7 km/h 63% 0 mm
16:44 24.6 °C 17.8 °C 1015.5 hPa SW 11.3 km/h 19.3 km/h 66% 0 mm
16:49 24.8 °C 17.8 °C 1015.5 hPa West 6.4 km/h 16.1 km/h 65% 0 mm
16:54 24.7 °C 17.7 °C 1015.5 hPa WSW 8 km/h 16.1 km/h 65% 0 mm
16:59 25.1 °C 17.8 °C 1015.5 hPa WSW 6.4 km/h 16.1 km/h 64% 0 mm
17:04 24.9 °C 17.6 °C 1015.5 hPa WSW 6.4 km/h 14.5 km/h 64% 0 mm
17:09 24.7 °C 17.7 °C 1015.5 hPa SW 8 km/h 20.9 km/h 65% 0 mm
17:14 24.4 °C 17.2 °C 1015.1 hPa SSW 9.7 km/h 19.3 km/h 64% 0 mm
17:19 24.6 °C 17.6 °C 1015.1 hPa WNW 12.9 km/h 16.1 km/h 65% 0 mm
17:24 24.4 °C 17.4 °C 1015.5 hPa West 9.7 km/h 19.3 km/h 65% 0 mm
17:29 24.3 °C 17.3 °C 1015.5 hPa WSW 9.7 km/h 19.3 km/h 65% 0 mm
17:34 24.4 °C 17.7 °C 1015.5 hPa WSW 9.7 km/h 17.7 km/h 66% 0 mm
17:39 24.1 °C 17.3 °C 1015.1 hPa SW 6.4 km/h 17.7 km/h 66% 0 mm
17:44 24 °C 17.7 °C 1015.1 hPa SW 6.4 km/h 17.7 km/h 68% 0 mm
17:49 24.1 °C 18 °C 1015.1 hPa WSW 8 km/h 14.5 km/h 69% 0 mm
17:54 24.1 °C 18 °C 1015.1 hPa WSW 9.7 km/h 19.3 km/h 69% 0 mm
17:59 23.9 °C 17.4 °C 1015.1 hPa WSW 9.7 km/h 20.9 km/h 67% 0 mm
18:04 23.9 °C 17.7 °C 1015.1 hPa WSW 9.7 km/h 20.9 km/h 68% 0 mm
18:09 23.9 °C 17.6 °C 1015.1 hPa WSW 8 km/h 17.7 km/h 68% 0 mm
18:14 23.9 °C 17.6 °C 1015.1 hPa WSW 8 km/h 17.7 km/h 68% 0 mm
18:19 23.7 °C 17.7 °C 1015.5 hPa West 11.3 km/h 19.3 km/h 69% 0 mm
18:24 23.5 °C 17.7 °C 1015.5 hPa WSW 6.4 km/h 11.3 km/h 70% 0 mm
18:29 23.6 °C 17.8 °C 1015.5 hPa SW 8 km/h 14.5 km/h 70% 0 mm
18:34 23.8 °C 18.2 °C 1015.5 hPa SW 4.8 km/h 12.9 km/h 71% 0 mm
18:39 23.7 °C 17.9 °C 1015.5 hPa West 9.7 km/h 16.1 km/h 70% 0 mm
18:44 23.8 °C 18.2 °C 1015.5 hPa SW 3.2 km/h 11.3 km/h 71% 0 mm
18:49 23.7 °C 18.1 °C 1015.5 hPa SW 3.2 km/h 14.5 km/h 71% 0 mm
18:54 23.3 °C 17.8 °C 1015.5 hPa SW 8 km/h 17.7 km/h 71% 0 mm
18:59 23.1 °C 17.7 °C 1015.5 hPa WSW 8 km/h 17.7 km/h 72% 0 mm
19:04 23.1 °C 17.9 °C 1015.8 hPa SW 8 km/h 14.5 km/h 73% 0 mm
19:09 23 °C 17.9 °C 1015.8 hPa SW 8 km/h 14.5 km/h 73% 0 mm
19:14 22.8 °C 17.7 °C 1015.8 hPa WSW 8 km/h 14.5 km/h 73% 0 mm
19:19 22.8 °C 17.7 °C 1015.8 hPa WSW 4.8 km/h 14.5 km/h 73% 0 mm
19:24 22.8 °C 17.7 °C 1015.8 hPa SW 6.4 km/h 17.7 km/h 73% 0 mm
19:29 22.8 °C 17.9 °C 1015.8 hPa SW 3.2 km/h 14.5 km/h 74% 0 mm
19:34 22.7 °C 17.8 °C 1016.1 hPa West 3.2 km/h 11.3 km/h 74% 0 mm
19:39 22.6 °C 17.9 °C 1016.1 hPa SW 4.8 km/h 12.9 km/h 75% 0 mm
19:44 22.6 °C 17.9 °C 1016.1 hPa WSW 4.8 km/h 12.9 km/h 75% 0 mm
19:49 22.5 °C 17.8 °C 1016.1 hPa West 6.4 km/h 14.5 km/h 75% 0 mm
19:54 22.3 °C 17.7 °C 1016.1 hPa WSW 6.4 km/h 16.1 km/h 75% 0 mm
19:59 22.2 °C 17.6 °C 1016.1 hPa WSW 8 km/h 16.1 km/h 75% 0 mm
20:04 22.2 °C 17.7 °C 1016.5 hPa WSW 6.4 km/h 14.5 km/h 76% 0 mm
20:09 22.1 °C 17.7 °C 1016.5 hPa WSW 6.4 km/h 14.5 km/h 76% 0 mm
20:14 22 °C 17.6 °C 1016.5 hPa WSW 6.4 km/h 12.9 km/h 76% 0 mm
20:19 21.9 °C 17.7 °C 1016.5 hPa West 3.2 km/h 9.7 km/h 77% 0 mm
20:24 21.9 °C 17.7 °C 1016.8 hPa WSW 4.8 km/h 14.5 km/h 77% 0 mm
20:29 21.8 °C 17.6 °C 1016.5 hPa WSW 6.4 km/h 14.5 km/h 77% 0 mm
20:34 21.8 °C 17.8 °C 1016.5 hPa WSW 4.8 km/h 11.3 km/h 78% 0 mm
20:39 21.7 °C 17.9 °C 1016.5 hPa SW 3.2 km/h 9.7 km/h 79% 0 mm
20:44 21.6 °C 17.8 °C 1016.8 hPa SW 4.8 km/h 9.7 km/h 79% 0 mm
20:49 21.5 °C 17.9 °C 1016.8 hPa SW 6.4 km/h 11.3 km/h 80% 0 mm
20:54 21.4 °C 17.8 °C 1016.8 hPa SW 4.8 km/h 11.3 km/h 80% 0 mm
20:59 21.4 °C 18 °C 1016.8 hPa SW 4.8 km/h 16.1 km/h 81% 0 mm
21:04 21.3 °C 17.9 °C 1016.8 hPa SSW 6.4 km/h 14.5 km/h 81% 0 mm
21:09 21.3 °C 17.9 °C 1016.8 hPa SW 4.8 km/h 8 km/h 81% 0 mm
21:14 21.3 °C 17.9 °C 1016.5 hPa SW 4.8 km/h 8 km/h 81% 0 mm
21:19 21.2 °C 17.8 °C 1016.5 hPa SW 6.4 km/h 9.7 km/h 81% 0 mm
21:24 21.2 °C 17.8 °C 1016.5 hPa SSW 4.8 km/h 9.7 km/h 81% 0 mm
21:29 21.2 °C 17.8 °C 1016.5 hPa SW 4.8 km/h 11.3 km/h 81% 0 mm
21:34 21.1 °C 17.7 °C 1016.5 hPa SW 3.2 km/h 11.3 km/h 81% 0 mm
21:39 21.1 °C 17.7 °C 1016.1 hPa SW 3.2 km/h 11.3 km/h 81% 0 mm
21:44 21.1 °C 17.9 °C 1016.5 hPa SW 3.2 km/h 8 km/h 82% 0 mm
21:49 21 °C 17.8 °C 1016.5 hPa SW 3.2 km/h 8 km/h 82% 0 mm
21:54 20.8 °C 17.7 °C 1016.5 hPa SW 4.8 km/h 4.8 km/h 82% 0 mm
21:59 20.8 °C 17.6 °C 1016.5 hPa SW 3.2 km/h 6.4 km/h 82% 0 mm
22:04 20.8 °C 17.8 °C 1016.5 hPa WSW 3.2 km/h 6.4 km/h 83% 0 mm
22:09 20.8 °C 17.8 °C 1016.5 hPa Calm   6.4 km/h 83% 0 mm
22:14 20.8 °C 17.8 °C 1016.5 hPa SW 1.6 km/h 4.8 km/h 83% 0 mm
22:19 20.8 °C 17.8 °C 1016.5 hPa Calm   9.7 km/h 83% 0 mm
22:24 20.8 °C 17.8 °C 1016.5 hPa Calm   6.4 km/h 83% 0 mm
22:29 20.7 °C 17.7 °C 1016.5 hPa SW 1.6 km/h 6.4 km/h 83% 0 mm
22:34 20.6 °C 17.6 °C 1016.5 hPa SW 1.6 km/h 6.4 km/h 83% 0 mm
22:39 20.6 °C 17.6 °C 1016.5 hPa SSW 1.6 km/h 6.4 km/h 83% 0 mm
22:44 20.6 °C 17.8 °C 1016.5 hPa SW 3.2 km/h 6.4 km/h 84% 0 mm
22:49 20.6 °C 17.8 °C 1016.5 hPa SW 3.2 km/h 4.8 km/h 84% 0 mm
22:54 20.6 °C 17.8 °C 1016.5 hPa SW 3.2 km/h 4.8 km/h 84% 0 mm
22:59 20.5 °C 17.7 °C 1016.5 hPa SW 3.2 km/h 8 km/h 84% 0 mm
23:04 20.6 °C 17.8 °C 1016.8 hPa WSW 3.2 km/h 9.7 km/h 84% 0 mm
23:09 20.6 °C 17.8 °C 1016.8 hPa WSW 3.2 km/h 9.7 km/h 84% 0 mm
23:14 20.6 °C 17.8 °C 1016.8 hPa WSW 3.2 km/h 6.4 km/h 84% 0 mm
23:19 20.6 °C 17.6 °C 1016.5 hPa SSW 3.2 km/h 4.8 km/h 83% 0 mm
23:24 20.5 °C 17.5 °C 1016.8 hPa Calm   4.8 km/h 83% 0 mm
23:29 20.3 °C 17.6 °C 1016.5 hPa SSW 1.6 km/h 4.8 km/h 84% 0 mm
23:34 20.1 °C 17.3 °C 1016.5 hPa Calm   1.6 km/h 84% 0 mm
23:39 19.8 °C 17.2 °C 1016.5 hPa Calm     85% 0 mm
23:44 19.8 °C 17.4 °C 1016.5 hPa Calm     86% 0 mm
23:49 19.7 °C 17.3 °C 1016.8 hPa Calm     86% 0 mm
23:54 19.7 °C 17.3 °C 1016.8 hPa Calm     86% 0 mm
23:59 19.7 °C 17.4 °C 1016.8 hPa Calm     87% 0 mm
Buffalo, New York, USA
Compliments of Weather Underground - 2.5 mb